Location: Cutler
(25.6150°N, 80.3110°W)
Time: 15:35:56
(UTC-05:00)

Vanguard 1 - Pass Details

Date: 25 January 2018
Orbit: 650 x 3833 km, 34.2° (Epoch: 22 February)

Event Time Altitude Azimuth Distance (km) Brightness Sun altitude
Rises 21:21:13 0° 243° (WSW) 2,945 13.2 -45.2°
Enters shadow 21:21:56 - 243° (WSW) 2,647 12.9 -45.3°
Reaches altitude 10° 21:23:19 10° 243° (WSW) 2,066 - -45.6°
Maximum altitude 21:27:48 87° 155° (SSE) 768 - -46.6°
Drops below altitude 10° 21:34:10 10° 66° (ENE) 2,892 - -48.1°
Sets 21:37:37 0° 66° (ENE) 4,259 - -48.8°
